Weather History for Carmi, IL

Change the Weather History Date:

Wednesday, March 27, 2013

  Actual Average (KEVV) Record (KEVV)
Temperature  
Mean Temperature 36 °F 50 °F  
Max Temperature 47 °F 61 °F 84 °F (1910)
Min Temperature 26 °F 38 °F 17 °F (1955)
Degree Days  
Heating Degree Days 28 15  
Month to date heating degree days 531  
Since 1 July heating degree days 4105  
Cooling Degree Days 0 0  
Month to date cooling degree days 0  
Year to date cooling degree days 0  
Moisture  
Dew Point 28 °F    
Average Humidity 70    
Maximum Humidity 94    
Minimum Humidity 45    
Precipitation  
Precipitation 0.03 in 0.15 in 3.01 in (1950)
Month to date precipitation 3.66  
Year to date precipitation 9.93  
Snow  
Snow 0.00 in 0.00 in T in (1955)
Month to date snowfall 0.9  
Since 1 July snowfall 11.6  
Snow Depth -    
Sea Level Pressure  
Sea Level Pressure 30.36 in    
Wind  
Wind Speed 5 mph (WNW)    
Max Wind Speed 10 mph    
Max Gust Speed -    
Visibility 10 miles    
Events      
T = Trace of Precipitation, MM = Missing Value Source: NWS Daily Summary

Daily Weather History Graph

Daily Weather History Graph

Search for Another Location

Airport:

Trip Planner

Search our weather history database for the weather conditions in past years. The results will help you decide how hot, cold, wet, or windy it might be!

Date:

Astronomy

Mar. 27, 2013 Rise Set
Actual Time 6:44 AM CDT 7:11 PM CDT
Civil Twilight 6:18 AM CDT 7:37 PM CDT
Nautical Twilight 5:47 AM CDT 8:08 PM CDT
Astronomical Twilight 5:15 AM CDT 8:40 PM CDT
Moon 7:53 PM CDT (3/27) 6:36 AM CDT (3/27)
Length of Visible Light 13h 19m
Length of Day
12h 26m
Full, 100% of the Moon is Illuminated
Mar 27
Full
Apr 2
Last Quarter
Apr 10
New
Apr 18
First Quarter
Apr 25
Full

Hourly Weather History & Observations

Time (CDT) Temp. Windchill Dew Point Humidity Pressure Visibility Wind Dir Wind Speed Gust Speed Precip Events Conditions
12:15 AM 31.1 °F 25.4 °F 28.0 °F 88% 30.35 in 10.0 mi WSW 5.8 mph - N/A   Clear
12:35 AM 31.1 °F 26.4 °F 28.2 °F 89% 30.35 in 10.0 mi WSW 4.6 mph - N/A   Clear
12:55 AM 30.4 °F 24.5 °F 28.0 °F 91% 30.35 in 10.0 mi WSW 5.8 mph - N/A   Clear
1:15 AM 30.2 °F 24.3 °F 27.9 °F 91% 30.35 in 10.0 mi WSW 5.8 mph - N/A   Clear
1:35 AM 30.2 °F 25.4 °F 27.7 °F 90% 30.35 in 10.0 mi WSW 4.6 mph - N/A   Clear
1:55 AM 30.0 °F 25.2 °F 27.5 °F 90% 30.35 in 10.0 mi WSW 4.6 mph - N/A   Clear
2:15 AM 29.7 °F 23.7 °F 27.5 °F 92% 30.36 in 10.0 mi WSW 5.8 mph - N/A   Clear
2:35 AM 28.2 °F 23.1 °F 26.6 °F 94% 30.35 in 10.0 mi West 4.6 mph - N/A   Clear
2:55 AM 29.5 °F 23.4 °F 27.9 °F 94% 30.35 in 10.0 mi WNW 5.8 mph - N/A   Clear
3:15 AM 28.2 °F 21.0 °F 24.3 °F 85% 30.35 in 10.0 mi NW 6.9 mph - N/A   Clear
3:55 AM 30.4 °F 23.6 °F 25.5 °F 82% 30.35 in 10.0 mi West 6.9 mph - N/A   Clear
4:15 AM 29.3 °F 25.6 °F 25.0 °F 84% 30.35 in 10.0 mi West 3.5 mph - N/A   Clear
4:35 AM 29.1 °F 25.4 °F 25.0 °F 85% 30.35 in 10.0 mi West 3.5 mph - N/A   Clear
4:55 AM 29.1 °F 25.4 °F 25.3 °F 86% 30.35 in 10.0 mi WNW 3.5 mph - N/A   Clear
5:15 AM 28.2 °F - 25.3 °F 89% 30.35 in 10.0 mi Calm Calm - N/A   Clear
5:35 AM 28.6 °F 24.8 °F 25.7 °F 89% 30.35 in 10.0 mi SW 3.5 mph - N/A   Clear
5:55 AM 28.9 °F 23.9 °F 26.2 °F 90% 30.35 in 10.0 mi West 4.6 mph - N/A   Clear
6:15 AM 28.8 °F 22.6 °F 25.9 °F 89% 30.36 in 10.0 mi WSW 5.8 mph - N/A   Clear
6:35 AM 28.9 °F 22.8 °F 26.1 °F 89% 30.37 in 10.0 mi WSW 5.8 mph - N/A   Clear
6:55 AM 26.8 °F 21.4 °F 24.4 °F 91% 30.37 in 10.0 mi WSW 4.6 mph - N/A   Clear
7:15 AM 28.2 °F 23.1 °F 26.4 °F 93% 30.38 in 10.0 mi WSW 4.6 mph - N/A   Clear
7:35 AM 29.7 °F 24.7 °F 27.1 °F 90% 30.38 in 10.0 mi WSW 4.6 mph - N/A   Clear
7:55 AM 31.6 °F 28.3 °F 27.9 °F 86% 30.39 in 7.0 mi West 3.5 mph - N/A   Clear
8:15 AM 32.4 °F - 28.9 °F 87% 30.39 in 10.0 mi Calm Calm - N/A   Clear
8:35 AM 34.7 °F 30.6 °F 27.7 °F 76% 30.39 in 10.0 mi West 4.6 mph - N/A   Clear
8:55 AM 36.1 °F 32.3 °F 27.9 °F 72% 30.39 in 10.0 mi WNW 4.6 mph - N/A   Clear
9:15 AM 36.7 °F 32.0 °F 27.7 °F 70% 30.40 in 10.0 mi West 5.8 mph - N/A   Clear
9:35 AM 38.1 °F 32.9 °F 28.9 °F 70% 30.40 in 10.0 mi West 6.9 mph - N/A   Clear
9:55 AM 39.0 °F 34.8 °F 28.4 °F 66% 30.40 in 10.0 mi West 5.8 mph - N/A   Clear
10:15 AM 40.3 °F 36.3 °F 27.9 °F 61% 30.40 in 10.0 mi WNW 5.8 mph - N/A   Clear
10:35 AM 41.4 °F 39.4 °F 26.1 °F 55% 30.40 in 10.0 mi West 3.5 mph - N/A   Clear
10:55 AM 41.0 °F 37.1 °F 25.2 °F 53% 30.40 in 10.0 mi WNW 5.8 mph - N/A   Scattered Clouds
11:15 AM 42.4 °F 39.6 °F 25.9 °F 52% 30.40 in 10.0 mi WNW 4.6 mph - N/A   Scattered Clouds
11:35 AM 42.6 °F 39.9 °F 26.4 °F 53% 30.40 in 10.0 mi West 4.6 mph - N/A   Scattered Clouds
11:55 AM 42.8 °F 39.3 °F 25.5 °F 51% 30.40 in 10.0 mi West 5.8 mph - N/A   Scattered Clouds
12:15 PM 43.7 °F 38.1 °F 25.7 °F 49% 30.40 in 10.0 mi NW 10.4 mph - N/A   Clear
12:35 PM 44.8 °F 39.4 °F 27.3 °F 50% 30.40 in 10.0 mi West 10.4 mph - N/A   Clear
12:55 PM 45.1 °F 39.9 °F 26.6 °F 48% 30.40 in 10.0 mi WNW 10.4 mph - N/A   Scattered Clouds
1:15 PM 45.1 °F 40.8 °F 27.0 °F 49% 30.39 in 10.0 mi NW 8.1 mph - N/A   Clear
1:35 PM 45.3 °F 40.1 °F 26.1 °F 47% 30.39 in 10.0 mi NW 10.4 mph - N/A   Scattered Clouds
1:55 PM 44.8 °F 40.4 °F 26.4 °F 49% 30.38 in 10.0 mi West 8.1 mph - N/A   Clear
2:15 PM 46.2 °F 41.7 °F 26.4 °F 46% 30.37 in - NW 9.2 mph - 0.03 in   Clear
2:35 PM 46.9 °F - 27.9 °F 48% 30.36 in 10.0 mi WNW 9.2 mph - 0.03 in   Clear
2:55 PM 46.6 °F - 26.1 °F 45% 30.36 in 10.0 mi WNW 4.6 mph - 0.03 in   Clear
3:15 PM 46.8 °F - 27.0 °F 46% 30.35 in 10.0 mi NW 6.9 mph - N/A   Clear
3:35 PM 47.3 °F - 26.8 °F 45% 30.35 in 10.0 mi Calm Calm - N/A   Clear
3:55 PM 46.8 °F - 27.5 °F 47% 30.34 in 10.0 mi WNW 8.1 mph - N/A   Clear
4:15 PM 46.8 °F - 27.5 °F 47% 30.34 in 10.0 mi North 6.9 mph - N/A   Clear
4:35 PM 46.9 °F - 27.3 °F 46% 30.34 in 10.0 mi NNW 9.2 mph - N/A   Clear
4:55 PM 47.1 °F - 26.8 °F 45% 30.34 in 10.0 mi West 3.5 mph - N/A   Clear
5:15 PM 47.1 °F - 27.9 °F 47% 30.33 in 10.0 mi NNW 6.9 mph - N/A   Clear
5:35 PM 47.3 °F - 27.5 °F 46% 30.33 in 10.0 mi West 4.6 mph - N/A   Clear
5:55 PM 46.9 °F - 27.5 °F 47% 30.33 in 10.0 mi WNW 5.8 mph - N/A   Clear
6:15 PM 46.4 °F 44.3 °F 27.9 °F 48% 30.32 in 10.0 mi NNW 4.6 mph - N/A   Clear
6:35 PM 45.5 °F 42.5 °F 29.1 °F 53% 30.32 in 10.0 mi NW 5.8 mph - N/A   Clear
6:55 PM 43.5 °F 40.1 °F 29.7 °F 58% 30.32 in 10.0 mi NNW 5.8 mph - N/A   Clear
7:15 PM 42.4 °F 39.6 °F 28.6 °F 58% 30.32 in 10.0 mi NW 4.6 mph - N/A   Clear
7:35 PM 42.6 °F 40.9 °F 28.0 °F 56% 30.32 in 10.0 mi North 3.5 mph - N/A   Clear
7:55 PM 41.7 °F - 29.5 °F 62% 30.33 in 10.0 mi Calm Calm - N/A   Clear
8:15 PM 39.0 °F - 34.9 °F 85% 30.33 in 10.0 mi Calm Calm - N/A   Clear
8:35 PM 38.3 °F - 33.3 °F 82% 30.33 in 10.0 mi Calm Calm - N/A   Clear
8:55 PM 37.9 °F - 34.3 °F 87% 30.33 in 10.0 mi Calm Calm - N/A   Clear
9:15 PM 37.8 °F 34.2 °F 31.5 °F 78% 30.33 in 10.0 mi NNE 4.6 mph - N/A   Clear
9:35 PM 35.2 °F 30.3 °F 30.9 °F 84% 30.33 in 10.0 mi North 5.8 mph - N/A   Clear
9:55 PM 34.2 °F 30.0 °F 31.5 °F 90% 30.34 in 10.0 mi North 4.6 mph - N/A   Clear
10:35 PM 36.7 °F 31.2 °F 30.6 °F 78% 30.34 in 10.0 mi North 6.9 mph - N/A   Clear
10:55 PM 36.7 °F 31.2 °F 30.2 °F 77% 30.34 in 10.0 mi North 6.9 mph - N/A   Clear
11:15 PM 36.9 °F 33.1 °F 30.2 °F 77% 30.35 in 10.0 mi North 4.6 mph - N/A   Scattered Clouds
11:35 PM 36.3 °F 32.5 °F 30.7 °F 80% 30.35 in 10.0 mi NNE 4.6 mph - N/A   Scattered Clouds
11:55 PM 35.8 °F 31.9 °F 30.2 °F 80% 30.34 in 10.0 mi NNE 4.6 mph - N/A   Scattered Clouds